Location: ????????
(56.0167°N, 38.0333°E)
Time: 07:51:10
(UTC+00:00)

Cosmos 2322 Rocket - Pass Details

Date: 19 May 2025
Orbit: 832 x 849 km, 71.0° (Epoch: 23 June)

Event Time Altitude Azimuth Distance (km) Brightness Sun altitude
Rises 22:50:59 0° 317° (NW) 3,416 5.7 -11.8°
Reaches altitude 10° 22:54:46 10° 292° (WNW) 2,470 4.6 -11.6°
Maximum altitude 22:57:21 13° 264° (W) 2,229 4.1 -11.5°
Drops below altitude 10° 22:59:55 10° 237° (WSW) 2,457 4.1 -11.4°
Enters shadow 23:00:04 10° 236° (SW) 2,482 4.1 -11.4°
